GFSNE_prec_cloud_192.txt.gz
Cloud_Cover
100 100 100 100 100 100 22 5 5 4 0 0 0 0 0 0 0 0 1 5 5 5 10 96 100 100 100 100 95 100 100 100 100 100 100 100 100 100
100 100 100 100 100 96 9 13 0 4 2 0 0 0 0 0 0 0 5 5 5 5 37 96 100 100 100 100 82 98 79 100 100 100 100 100 100 100
100 100 100 99 61 60 15 5 0 0 0 0 0 0 0 0 0 0 2 5 5 5 5 52 100 100 100 100 100 96 99 100 100 100 100 100 100 100
100 100 95 62 69 45 5 0 0 0 3 0 0 0 0 0 0 0 1 5 5 5 5 22 90 100 100 100 100 99 99 100 100 100 100 100 100 100
100 70 75 68 46 5 0 0 0 1 3 1 0 0 0 0 0 0 1 5 0 5 5 5 32 98 100 100 100 100 100 100 100 100 100 100 100 100
85 100 95 22 5 5 0 0 0 0 0 0 0 0 0 0 0 4 2 5 5 0 2 0 1 9 69 100 100 100 100 100 100 100 100 100 100 100
100 100 100 86 74 47 0 2 1 3 0 0 1 5 4 5 5 5 5 1 5 0 4 0 0 5 5 32 100 97 100 100 100 100 100 100 100 100
100 100 100 100 100 98 0 0 2 5 5 5 5 5 5 5 5 5 5 5 58 3 1 4 5 67 25 59 100 72 100 100 100 100 100 92 100 100
100 100 100 100 100 54 5 3 3 5 5 5 5 25 66 20 6 5 5 5 44 4 0 5 11 13 5 5 83 5 92 100 100 100 98 99 100 100
100 100 100 100 100 5 5 5 5 5 5 5 39 68 7 9 12 12 5 5 62 4 4 5 5 71 85 5 32 5 55 100 100 97 6 60 99 100
91 100 100 100 5 5 5 26 63 17 5 5 5 12 58 88 40 16 6 5 6 17 5 5 5 5 13 24 0 1 5 5 60 14 0 57 34 40
48 60 52 4 5 5 5 5 51 30 5 24 5 54 47 14 5 5 5 5 62 5 5 5 5 5 7 5 5 2 5 4 5 1 5 61 13 5
5 42 11 5 5 5 5 5 8 8 25 51 67 58 41 22 5 5 5 5 6 14 27 5 5 27 36 12 5 5 5 8 11 0 0 11 18 5
6 5 5 5 5 29 30 52 56 75 64 79 79 77 43 6 5 5 5 19 5 7 11 5 18 5 32 35 7 5 5 7 13 5 9 3 3 2
67 56 51 46 63 75 77 66 59 52 82 64 100 86 98 81 6 7 5 5 5 5 5 5 5 10 23 5 5 52 8 5 6 5 5 5 5 5
61 99 100 100 99 100 92 78 89 95 83 78 60 66 93 64 7 8 43 8 5 5 5 5 5 5 5 5 42 66 5 5 0 4 5 5 5 5
96 97 100 100 100 100 99 100 100 100 100 100 100 99 79 46 22 30 26 25 19 22 5 5 5 5 5 7 60 45 5 5 5 5 26 29 4 5
100 100 100 100 99 97 100 100 100 100 100 100 80 43 6 31 84 54 32 41 52 53 57 10 16 5 5 5 4 5 20 5 5 5 5 28 5 5
100 100 100 100 100 100 100 100 100 100 100 100 84 10 5 44 53 51 25 56 75 62 52 48 51 55 95 86 5 4 58 5 33 50 5 5 5 5
100 100 100 100 100 100 100 100 100 100 100 99 40 8 15 42 85 68 44 50 64 59 64 63 72 61 56 62 100 14 5 5 52 43 5 5 5 3
100 100 100 100 100 100 100 100 100 100 100 100 100 96 82 87 100 94 87 69 71 79 98 64 8 7 40 34 11 5 5 5 7 19 5 5 5 19
100 100 100 99 100 100 100 100 100 100 100 100 100 100 100 100 100 100 100 100 70 60 63 66 16 55 30 7 5 5 5 5 2 0 2 8 100 100
100 100 100 100 100 100 100 100 100 100 100 100 100 100 98 100 100 100 100 98 88 75 100 97 33 47 5 5 5 5 6 5 5 5 5 0 5 71

GFSNE_prec_cloud_195.txt.gz
Cloud_Cover
100 100 100 100 100 100 100 95 71 26 48 84 6 5 0 0 0 0 5 5 5 71 100 100 100 100 100 100 100 100 94 98 100 100 100 100 100 100
100 100 100 100 100 100 99 100 93 91 70 5 5 0 0 1 0 0 3 19 20 10 81 100 100 100 98 80 100 100 98 100 100 100 100 100 100 100
100 100 100 100 100 100 100 100 100 26 5 5 5 0 0 0 0 0 4 5 6 67 96 100 88 100 100 99 95 99 100 100 100 100 100 100 100 100
100 100 100 100 100 100 100 95 16 8 5 5 0 0 0 0 0 1 4 5 5 15 6 33 100 100 100 100 100 100 99 100 100 100 100 100 100 100
100 100 100 100 100 100 86 58 31 16 5 0 0 0 0 0 3 5 5 4 4 19 0 5 91 100 100 100 100 100 100 100 100 100 100 100 100 100
100 100 100 100 100 99 92 71 22 5 1 0 0 0 0 0 3 4 5 5 3 1 0 5 65 79 100 99 81 100 98 100 100 100 100 100 100 100
100 100 100 100 100 100 100 100 63 15 0 0 0 0 0 5 5 5 5 5 5 1 4 5 76 5 26 58 16 99 100 100 100 100 100 100 100 100
100 100 100 100 100 100 100 100 100 17 0 0 3 0 5 5 5 5 5 5 22 0 1 12 98 5 5 87 88 100 100 100 100 99 97 100 100 100
100 100 100 100 100 100 100 100 100 1 5 0 5 5 5 5 7 5 5 5 5 5 5 3 46 5 5 64 97 95 93 100 100 12 92 96 100 100
41 70 100 100 100 100 100 100 98 4 4 5 5 5 6 5 5 5 5 5 5 5 5 5 5 97 97 3 63 42 71 82 98 5 99 99 77 20
74 62 99 100 100 100 100 100 58 36 5 5 5 5 5 8 11 5 5 41 52 5 5 5 5 5 23 30 5 5 5 6 6 2 33 99 58 5
88 5 5 94 100 100 100 20 27 36 35 5 39 51 67 45 8 35 10 5 56 5 5 5 5 5 5 5 5 0 4 1 0 0 3 28 8 4
47 62 6 5 5 5 6 5 5 38 45 60 48 71 63 49 54 76 41 5 7 5 21 6 5 27 43 13 5 5 5 5 5 1 0 5 5 5
63 8 6 5 5 10 11 16 17 53 66 75 83 95 99 76 62 65 49 40 19 5 5 5 5 5 28 21 6 5 5 6 9 5 5 1 3 0
68 37 74 32 68 98 100 100 100 85 82 98 98 89 80 66 36 62 68 67 25 5 5 5 5 19 8 5 5 31 51 5 6 5 5 5 10 5
83 90 90 100 100 43 98 98 77 100 90 98 100 100 100 82 14 18 10 12 5 5 5 5 5 5 5 5 20 57 54 5 5 5 8 23 7 5
100 100 98 73 100 100 100 100 74 75 96 100 100 100 100 100 100 100 77 67 21 18 5 5 5 5 5 6 61 43 52 5 5 5 24 56 5 5
100 100 100 100 100 100 90 95 100 100 100 100 100 100 85 76 86 63 51 18 45 64 66 48 9 5 5 4 3 5 31 5 5 5 34 71 4 2
100 100 100 100 100 100 100 100 100 100 100 100 100 78 37 97 99 98 79 69 65 63 57 56 63 58 93 87 5 1 5 5 51 53 30 6 5 5
100 100 100 100 100 100 100 100 100 100 100 100 100 100 90 78 99 100 100 100 80 63 66 69 75 64 56 54 55 50 5 18 35 13 5 5 3 4
100 100 100 100 100 100 100 100 100 100 100 100 100 100 100 100 100 100 100 88 64 89 82 92 41 74 49 55 50 5 5 5 4 5 5 5 9 22
100 100 99 100 100 100 99 100 100 100 100 100 100 100 100 100 100 100 100 100 100 99 99 100 94 91 100 98 16 5 5 5 5 0 0 5 95 100
100 100 100 100 100 100 100 100 100 99 100 100 100 100 100 100 100 100 100 100 100 100 87 85 97 95 84 87 57 5 5 5 5 5 5 0 5 39

GFSNE_prec_cloud_198.txt.gz
Cloud_Cover
93 87 100 100 100 100 100 100 100 100 100 100 100 100 40 43 5 5 5 7 98 100 100 100 100 93 94 98 94 99 100 100 100 100 100 100 100 100
95 49 66 99 100 100 100 100 100 100 100 100 100 100 95 35 5 4 5 9 100 95 100 92 100 100 99 98 100 100 100 99 98 100 100 100 100 100
100 67 11 94 100 100 100 100 100 100 100 100 100 66 11 11 3 5 5 5 29 76 50 86 100 100 96 96 96 100 100 100 100 99 97 95 100 100
88 87 100 100 100 100 100 100 100 100 100 100 94 53 11 5 4 3 5 5 3 4 6 28 59 100 99 100 100 100 100 100 100 100 100 100 99 98
66 59 65 100 100 100 100 99 99 100 91 66 25 5 5 5 5 5 5 5 5 0 4 63 100 100 98 98 100 100 100 100 100 100 100 100 100 100
5 6 90 100 100 100 100 100 100 100 68 9 22 12 5 0 4 3 4 2 3 0 7 43 25 99 87 26 92 100 100 100 100 100 100 100 100 100
7 83 100 100 100 100 100 100 100 100 98 65 56 5 0 2 1 5 5 5 5 5 5 28 5 5 5 9 51 100 100 95 81 100 100 100 98 100
98 100 100 100 100 100 89 100 100 100 100 90 99 1 0 5 5 5 5 73 78 0 4 9 28 5 5 9 92 94 100 93 5 85 100 93 100 100
100 100 100 100 100 100 100 100 100 100 100 53 100 2 5 5 4 4 5 5 5 2 1 5 5 5 5 15 90 97 91 93 19 74 90 52 11 50
100 100 100 100 56 97 100 100 100 100 100 100 98 5 5 5 5 5 5 5 5 5 5 4 5 31 5 5 85 22 54 56 13 32 98 87 26 5
100 100 100 100 100 100 100 100 100 100 100 100 67 4 3 5 5 5 5 5 34 5 5 5 5 8 89 15 3 5 5 5 3 5 62 100 54 5
100 100 100 100 48 72 96 100 100 100 100 100 17 27 69 6 5 5 5 5 6 5 5 5 6 5 5 5 3 0 0 1 0 0 5 8 48 5
100 100 100 100 97 63 5 92 99 99 100 10 6 63 60 15 34 55 48 48 42 5 5 5 5 5 5 5 2 4 0 0 0 0 0 3 5 5
100 100 100 100 100 71 68 5 56 44 5 10 44 62 85 54 60 72 65 56 37 22 28 30 7 5 5 5 5 5 2 5 4 0 0 0 0 0
100 90 100 100 100 52 66 5 52 6 41 76 80 74 97 64 58 37 50 57 36 20 5 5 6 14 9 5 5 5 7 5 5 0 4 2 5 4
100 100 100 100 97 73 76 76 81 100 82 82 91 89 89 100 97 93 73 30 37 27 6 9 5 5 5 5 5 5 5 5 4 0 5 5 5 5
100 100 100 100 100 100 87 87 95 100 85 98 100 100 100 100 100 100 96 30 34 85 29 5 5 7 6 5 5 5 5 5 0 4 5 5 5 5
100 100 100 100 100 97 100 100 100 100 90 99 100 100 100 100 100 80 45 92 100 56 6 5 25 46 31 7 5 5 5 5 5 5 5 5 5 4
100 100 100 100 100 100 100 100 100 100 99 100 100 100 100 100 100 95 46 66 96 56 37 6 5 5 94 67 14 5 5 5 5 5 5 5 5 5
100 100 100 100 100 100 100 100 100 100 100 100 100 100 100 97 100 95 81 100 100 99 100 100 61 8 75 40 26 19 5 5 5 5 5 5 5 0
91 99 86 78 63 73 82 85 100 100 100 100 100 100 100 61 50 64 67 65 82 100 99 100 38 80 23 94 99 45 60 31 5 5 5 18 5 5
100 100 100 100 98 96 99 100 100 100 100 100 100 100 99 49 9 46 83 88 97 91 97 100 96 93 98 100 70 5 5 78 53 5 5 7 18 93
100 100 100 100 100 100 100 100 100 100 100 100 100 100 97 100 97 74 100 100 99 99 98 100 88 95 90 98 87 68 61 5 5 5 5 5 1 5

GFSNE_prec_cloud_201.txt.gz
Cloud_Cover
100 100 100 85 9 0 5 5 5 44 42 46 98 100 100 100 100 100 97 100 100 99 98 100 100 100 100 95 100 100 98 98 100 100 100 100 100 100
100 100 69 17 70 0 2 2 8 79 100 100 98 96 100 100 100 99 74 100 100 81 16 100 100 100 100 96 99 100 98 97 100 100 100 100 100 100
100 96 9 55 6 0 0 5 62 82 98 68 100 100 100 100 99 47 74 88 91 96 83 100 98 88 100 100 100 100 100 100 100 99 99 100 100 100
95 91 52 2 0 3 11 5 28 57 68 100 100 100 100 58 29 72 10 5 5 21 85 80 100 94 100 100 100 98 100 100 100 100 100 100 100 100
64 5 4 4 15 13 5 6 76 93 100 100 100 67 77 66 31 5 5 5 5 0 25 96 95 69 80 100 100 100 100 100 100 100 100 100 100 100
94 100 58 9 9 12 12 20 100 100 100 100 96 66 26 7 5 5 5 5 5 3 17 55 87 5 48 88 100 100 98 100 100 100 100 100 100 90
100 100 100 11 6 5 30 93 100 100 88 86 63 30 37 47 7 5 5 0 0 5 5 23 73 51 31 17 71 100 99 94 100 100 97 98 98 58
94 100 11 6 5 32 100 100 99 79 82 47 44 41 47 46 65 0 0 5 5 5 5 5 6 48 44 82 99 99 99 83 94 100 98 65 58 5
100 100 59 44 35 71 100 100 93 96 100 100 100 100 93 84 59 0 0 4 5 5 5 5 5 5 5 78 88 76 52 5 10 75 65 49 5 5
100 100 99 86 88 100 100 100 55 50 88 100 100 87 100 84 64 0 1 38 5 31 10 5 5 5 5 17 5 5 5 5 5 12 56 34 5 5
100 100 100 97 100 100 99 54 6 20 98 97 100 100 100 100 78 0 2 67 7 63 37 5 5 43 89 52 7 5 5 4 5 5 14 56 6 1
100 100 100 100 100 100 98 100 9 12 92 8 100 100 100 100 78 4 5 93 40 45 62 28 5 7 32 97 5 5 5 5 5 3 2 5 5 0
100 100 100 100 100 100 100 100 100 5 70 76 96 100 100 100 50 3 7 99 58 73 77 46 40 20 20 5 5 5 5 5 5 5 0 3 5 3
100 100 100 100 100 100 100 100 99 22 5 26 100 98 89 99 33 5 43 94 44 44 82 81 82 94 47 5 12 5 5 5 5 5 5 5 5 5
100 100 100 100 100 100 100 100 100 47 50 49 17 78 63 63 76 38 96 84 48 38 52 63 58 52 64 42 20 16 5 49 5 12 11 31 48 5
100 100 100 100 100 100 100 100 82 72 76 25 72 100 100 100 84 79 66 67 53 80 14 5 5 5 72 19 12 5 5 5 5 17 48 86 91 74
100 100 100 100 100 100 100 100 100 100 62 66 90 100 100 100 100 100 100 81 28 68 91 96 39 59 47 28 5 7 5 6 57 66 84 86 67 27
100 100 100 100 100 100 100 100 100 100 100 100 100 100 100 100 100 100 99 77 78 92 88 100 100 100 98 67 5 5 34 59 78 91 100 97 19 5
100 100 100 100 100 100 100 100 100 100 100 100 100 100 100 100 100 95 100 100 99 100 100 100 100 100 100 100 99 6 6 100 100 100 100 100 95 5
84 60 79 99 100 100 100 100 100 100 100 100 100 100 100 98 92 92 100 100 100 100 100 100 100 100 100 97 100 100 9 26 100 100 100 100 100 45
100 78 68 46 89 99 76 76 63 71 85 96 100 100 99 89 86 100 99 100 99 100 100 100 99 80 99 95 79 100 100 25 11 94 100 100 100 100
100 100 95 91 99 98 96 88 100 100 100 100 100 92 100 78 76 99 100 100 100 100 100 100 100 100 100 100 100 100 100 100 71 5 5 14 85 100
100 100 100 100 100 100 100 100 100 100 100 100 99 100 100 97 100 95 100 100 100 100 100 100 100 100 100 100 100 100 100 100 100 100 100 100 100 22